Location: *
(50.2903°S, 172.5375°W)
Time: 21:25:45
(UTC+00:00)

USA 267 - Pass Details

Date: 17 November 2019
Orbit: 1101 x 1106 km, 123.0° (Epoch: 09 December)

Event Time Altitude Azimuth Distance (km) Brightness Sun altitude
Rises 14:28:12 0° 23° (NNE) 3,921 5.9 -8.7°
Reaches altitude 10° 14:30:58 10° 13° (NNE) 2,971 5.2 -8.4°
Maximum altitude 14:36:46 33° 311° (NW) 1,786 3.9 -7.7°
Drops below altitude 10° 14:42:38 10° 248° (WSW) 2,995 5.3 -7.0°
Sets 14:45:27 0° 238° (WSW) 3,959 6.0 -6.7°
